GFSGL_850_temp_057.txt.gz
Temp
22 22 22 22 22 22 22 22 22 21 21 21 21 21 20 20 20 20 20 19 19 19 19 19 20 20 19 20 20 20 20 20 19 19 21 22 22 22 21 21 21 21 21
23 23 23 23 23 22 22 22 22 22 21 21 21 21 21 21 20 20 20 20 20 20 20 19 20 20 20 20 20 20 20 20 20 21 21 22 22 22 22 22 21 21 21
23 24 23 23 23 23 23 23 23 22 21 21 21 21 21 21 21 20 20 20 20 20 20 20 20 20 20 20 21 20 20 20 20 20 21 21 22 22 23 22 22 22 21
24 24 24 24 24 24 23 23 23 23 22 22 21 22 21 22 21 21 21 20 20 21 21 21 20 20 20 21 20 21 21 21 21 21 21 20 20 22 22 23 22 22 22
24 24 25 25 24 24 24 24 23 23 23 22 22 21 22 21 22 22 21 21 21 21 21 21 21 21 21 21 21 21 21 21 21 20 19 20 20 19 20 21 19 20 21
24 25 26 25 25 24 24 24 24 24 23 23 22 22 21 22 22 22 22 22 22 22 22 22 22 22 22 22 22 22 21 21 21 20 19 19 19 20 19 19 18 18 19
25 25 25 25 25 25 25 24 24 24 23 23 23 22 22 22 22 23 23 22 22 23 23 23 23 23 23 23 23 22 22 21 21 21 20 21 21 21 20 20 18 18 18
25 25 25 25 25 25 25 24 24 24 24 23 23 23 22 23 23 23 23 23 22 23 23 23 23 23 23 23 23 22 22 22 22 22 22 22 21 20 19 19 18 18 18
25 26 25 25 25 24 24 25 24 24 24 24 24 23 23 24 24 24 23 23 23 23 23 23 23 23 23 23 23 22 22 22 22 22 22 22 21 20 19 19 18 18 18
26 27 26 26 26 26 25 25 25 25 24 24 24 24 24 24 24 24 23 23 23 24 24 24 24 23 23 23 22 22 22 21 20 21 20 20 20 20 20 20 20 19 19
25 26 27 27 27 26 26 25 25 25 24 24 24 24 24 24 24 24 23 23 22 23 23 22 23 23 22 22 21 21 20 20 20 19 19 19 19 20 20 20 20 20 19
25 25 26 26 26 25 25 24 24 24 24 24 24 24 24 24 24 24 24 23 23 22 22 22 22 22 22 21 20 20 20 20 19 19 19 20 20 20 20 19 19 18 18
25 25 25 25 25 24 25 24 24 24 23 24 24 24 24 25 25 25 24 24 23 22 22 22 21 21 21 20 20 20 20 19 19 19 19 20 20 20 19 19 18 18 17
23 24 24 24 24 24 24 23 23 24 24 22 22 22 24 25 25 25 25 24 24 23 23 22 21 20 20 20 21 21 21 20 20 20 19 20 20 19 19 18 18 17 16
21 22 22 23 23 23 23 23 24 22 22 23 23 22 23 24 25 25 24 24 24 24 23 22 21 20 21 21 21 21 21 20 20 20 19 20 19 19 18 17 16 15 15
19 19 20 19 21 22 22 23 23 22 25 25 23 21 24 24 23 23 23 23 23 21 21 21 21 21 21 21 21 21 20 20 20 20 19 19 18 18 17 18 16 14 16
19 19 21 21 19 21 24 23 24 24 24 23 23 22 23 23 22 21 21 22 21 21 20 20 20 21 21 20 20 20 19 19 19 19 18 18 19 18 17 14 14 15 14
18 21 20 23 20 19 21 22 22 22 22 22 22 23 23 22 22 20 20 21 20 20 20 20 20 20 20 20 20 19 19 19 19 18 18 18 18 17 14 13 13 13 13
18 17 16 16 17 19 20 21 21 21 20 20 21 21 21 21 20 20 20 20 19 19 19 19 19 19 19 19 19 19 18 18 18 18 18 18 17 16 13 13 13 14 14
17 17 18 18 19 19 20 20 20 20 20 20 20 20 21 21 20 20 20 19 19 19 19 19 19 19 19 19 18 18 18 18 18 18 18 17 16 15 13 13 13 13 13
18 18 18 20 19 18 19 20 20 20 20 20 19 19 19 19 19 20 20 20 20 20 20 20 19 19 18 18 17 17 17 17 17 17 17 16 14 13 13 13 13 13 12
18 18 18 18 18 18 19 19 20 20 20 20 19 18 18 18 18 18 18 18 18 18 19 19 18 18 17 17 17 16 16 16 16 16 15 14 13 13 13 13 13 12 13
17 17 17 16 17 15 17 17 19 19 20 20 19 17 17 17 17 17 16 16 16 16 16 16 15 16 16 15 14 14 14 14 14 14 14 13 13 13 13 13 12 12 12
14 15 15 13 14 14 15 15 17 17 18 18 17 17 16 16 16 15 14 14 14 14 13 12 12 12 12 13 13 13 14 14 13 13 13 13 13 13 13 12 12 12 12
11 12 13 13 14 14 14 14 15 16 16 15 15 15 15 15 15 14 13 13 12 12 12 12 12 12 12 12 12 13 13 13 13 13 13 13 13 12 13 12 12 12 13
9 9 10 11 11 12 13 13 14 14 14 14 14 14 14 13 13 12 12 11 11 11 11 11 11 11 11 11 12 12 12 12 12 13 13 13 13 13 13 13 12 12 12

GFSGL_850_temp_060.txt.gz
Temp
20 19 20 20 20 21 20 21 21 21 21 21 21 21 19 19 18 19 19 19 18 18 18 18 18 18 19 20 20 20 20 20 20 21 22 22 21 23 22 22 22 22 21
20 21 22 20 21 20 22 22 22 22 21 21 21 21 21 20 19 19 19 19 18 18 19 18 18 19 19 20 19 19 20 20 20 20 21 20 20 21 23 23 22 20 20
20 20 21 21 20 20 22 22 22 22 22 22 21 21 21 21 20 19 20 19 19 19 19 19 19 19 18 19 19 20 20 19 19 19 20 20 21 21 20 20 20 19 20
22 21 21 23 22 22 23 23 23 23 22 22 22 21 21 22 20 19 19 21 20 19 19 19 19 19 19 19 19 19 19 19 20 20 20 21 21 22 21 21 20 20 21
22 22 21 24 24 23 23 23 23 23 23 23 22 22 22 22 21 21 20 20 20 20 19 19 19 20 21 21 20 20 20 20 20 21 21 22 22 22 22 22 21 21 21
23 22 22 24 24 24 24 24 24 24 23 23 23 22 22 21 21 22 22 21 20 20 20 21 21 21 22 22 22 22 21 20 20 20 21 21 21 21 21 21 21 21 21
22 22 22 24 24 25 25 24 24 24 24 24 23 23 23 22 22 23 23 22 20 20 21 21 21 21 21 22 23 23 23 22 22 21 21 21 21 20 20 19 20 20 20
21 21 22 25 24 24 24 25 25 24 24 24 24 23 23 23 23 23 23 22 22 22 21 20 22 23 22 21 21 20 21 22 23 23 23 23 22 20 19 19 19 19 19
21 23 24 24 25 24 23 24 25 24 24 24 24 24 24 24 24 24 23 22 22 23 23 23 23 23 24 24 23 23 23 22 21 20 20 21 20 19 19 19 19 19 19
21 23 23 24 24 25 24 24 24 24 25 24 23 24 24 24 24 24 24 23 22 23 24 23 24 24 24 24 24 24 23 21 20 20 19 19 19 19 19 20 20 20 19
21 21 21 21 23 24 24 24 25 25 23 24 24 24 24 25 24 25 25 24 23 21 21 22 21 21 24 25 24 23 23 21 20 19 19 19 19 19 19 19 19 19 20
21 21 20 22 21 21 24 24 23 23 24 23 24 23 23 25 25 25 25 25 24 23 22 22 22 21 21 23 22 22 21 21 20 20 19 19 19 19 19 20 19 19 19
21 20 20 22 20 21 23 23 22 23 21 21 20 21 21 22 23 25 25 25 24 23 23 21 21 20 20 22 22 21 20 20 20 19 20 21 20 20 19 19 19 19 19
20 20 20 21 20 20 20 20 20 21 20 22 22 22 23 23 22 22 25 25 24 23 23 23 22 22 20 20 20 21 20 21 20 21 20 21 20 20 19 19 19 18 17
20 20 20 20 19 20 20 21 21 22 22 22 23 23 23 23 23 23 22 22 24 24 24 23 22 21 22 21 21 20 20 20 21 21 21 20 20 19 19 18 18 17 18
20 20 21 21 20 21 21 20 20 21 21 21 22 22 23 23 23 22 22 22 22 22 22 20 20 22 22 21 20 20 21 21 21 20 20 20 19 18 18 17 17 17 17
19 19 19 20 20 20 19 20 20 20 20 21 21 21 21 21 22 22 22 21 21 22 22 20 19 19 19 20 21 20 21 20 20 20 19 18 18 18 16 17 17 17 16
17 19 19 19 19 21 21 22 22 21 21 21 21 20 21 21 23 23 22 21 21 21 21 21 21 20 19 20 20 20 20 20 19 19 18 17 16 17 17 17 17 16 16
16 20 18 17 19 23 23 23 24 25 26 24 21 21 22 23 23 22 21 20 19 20 20 20 19 19 19 19 19 19 19 19 17 17 16 16 16 16 16 16 17 16 15
15 17 17 17 21 21 21 24 22 23 24 24 21 20 21 22 22 21 20 19 19 19 19 20 19 19 19 19 19 19 18 17 17 17 16 15 15 15 15 16 16 16 14
14 15 18 17 19 19 20 23 21 19 20 19 19 19 20 19 19 20 19 19 19 18 18 18 18 19 18 18 16 16 16 16 16 15 15 14 14 15 14 14 14 14 13
12 14 15 17 19 19 19 20 20 19 19 19 19 19 19 19 18 17 18 19 20 19 19 18 17 17 18 17 17 16 14 14 15 14 13 14 14 13 13 13 13 13 13
12 14 14 15 17 17 17 18 20 20 19 19 17 16 17 16 18 18 19 19 18 18 18 17 17 16 16 15 15 15 15 15 13 14 14 14 14 14 14 13 13 13 13
12 9 15 13 15 16 18 18 18 16 16 17 16 16 15 14 13 15 17 17 17 17 16 16 15 15 15 14 13 13 13 13 14 13 13 13 14 13 13 13 13 13 13
11 11 10 12 13 13 14 14 14 15 15 14 14 13 13 13 11 12 13 14 15 14 14 14 13 13 12 12 12 12 12 13 13 12 13 12 13 13 13 13 13 13 13
7 8 8 9 10 11 11 12 13 13 13 14 14 14 13 12 11 12 12 12 12 12 12 11 11 11 11 11 11 11 12 12 11 12 12 12 12 13 13 13 13 13 13

GFSGL_850_temp_063.txt.gz
Temp
19 19 20 19 20 22 20 20 20 20 20 20 20 19 19 19 19 19 19 20 19 19 20 20 19 20 20 22 21 21 21 22 22 22 23 23 22 22 22 22 22 20 20
20 19 19 20 20 20 21 20 20 20 20 20 20 20 20 19 19 19 19 20 19 20 20 20 20 20 20 20 21 21 21 22 21 21 21 21 21 21 21 21 21 20 20
21 20 20 20 20 20 20 21 21 21 21 20 20 20 20 21 20 19 19 19 20 20 20 20 20 20 19 20 20 21 21 21 20 20 21 21 22 22 22 22 21 22 21
22 22 21 20 20 20 20 21 21 22 22 22 22 21 20 20 20 20 19 19 19 20 20 20 20 20 20 20 20 20 20 21 21 21 21 22 22 23 23 23 23 23 23
23 22 22 21 20 20 21 20 22 22 23 23 22 22 21 20 20 20 20 20 19 19 20 20 20 20 20 20 20 21 20 20 21 21 22 23 23 24 23 23 23 22 23
24 23 23 21 20 21 21 21 21 22 23 23 23 23 22 21 21 21 21 20 20 20 20 20 20 20 20 20 20 21 21 21 21 21 21 22 22 22 22 22 21 21 20
24 23 23 22 22 21 21 21 22 22 23 23 23 23 23 23 22 21 21 21 20 20 21 21 21 21 21 21 21 22 22 22 22 22 22 22 22 22 21 20 19 20 19
24 24 23 22 22 22 21 22 23 24 23 23 23 23 23 23 23 23 22 22 21 22 21 21 22 22 22 21 21 21 21 22 23 23 22 22 22 22 20 19 19 19 19
24 23 23 22 21 21 22 22 23 23 24 24 24 24 23 24 23 24 23 22 22 22 23 23 23 23 24 24 23 22 22 22 22 22 21 21 20 20 20 19 19 19 19
23 23 23 22 22 21 21 22 23 24 24 24 23 24 24 24 24 24 24 23 21 21 23 24 24 24 24 24 23 23 22 23 23 22 21 20 20 20 20 20 20 19 19
23 23 22 21 21 20 20 20 22 23 21 22 21 22 24 24 24 24 24 24 22 21 21 22 22 23 23 23 23 22 22 22 21 19 19 19 20 20 20 20 20 20 20
23 22 22 21 21 21 20 20 20 21 21 21 22 21 21 23 24 24 25 25 24 24 23 24 23 23 23 23 22 22 22 21 20 19 19 19 19 20 21 21 21 20 20
23 22 21 21 20 21 20 20 20 20 21 21 21 21 22 23 21 23 25 25 25 25 24 22 23 23 23 22 22 22 21 21 21 20 19 20 21 20 21 21 20 20 21
22 21 21 20 20 21 21 20 21 21 21 22 22 23 23 23 24 23 23 25 25 25 24 24 23 22 21 21 21 21 21 21 20 19 20 20 20 20 20 20 19 19 19
21 21 21 21 20 20 21 21 21 22 23 23 24 24 25 25 25 25 24 23 24 25 24 24 23 22 21 20 20 19 19 19 19 20 19 19 20 21 21 20 19 18 18
21 21 22 22 21 21 22 22 23 23 23 23 24 24 25 25 25 25 24 24 23 22 22 20 21 21 21 21 21 19 19 20 20 20 21 21 21 20 19 19 18 18 19
20 21 23 23 23 22 22 22 21 22 22 22 22 23 24 24 24 24 23 23 23 22 21 21 21 22 21 21 20 20 19 20 20 20 21 20 20 19 19 18 18 19 19
19 20 22 23 23 23 23 23 23 22 21 21 22 23 23 23 22 24 23 22 24 21 20 21 21 22 22 21 20 20 19 19 19 19 20 20 19 18 18 19 19 19 18
16 17 19 19 20 20 21 21 22 22 21 21 21 21 21 23 24 23 23 21 20 21 20 20 19 19 19 19 20 20 19 19 19 19 19 19 18 18 19 18 18 18 18
15 16 17 18 19 20 20 21 20 22 22 22 23 22 22 21 26 23 22 21 20 20 20 20 20 19 19 20 19 19 19 18 18 17 17 17 18 18 18 18 18 18 18
14 15 17 17 18 19 19 19 20 20 21 21 23 23 23 20 20 19 20 20 19 19 19 20 19 19 19 18 18 17 17 17 18 17 17 17 17 16 16 17 17 18 17
13 14 16 17 18 20 20 20 20 25 19 20 19 24 21 20 21 19 19 19 18 18 18 18 17 17 18 18 17 17 16 16 16 16 16 16 15 15 16 14 15 15 14
12 13 14 16 16 17 20 21 22 21 22 22 22 20 20 20 18 17 17 16 15 16 17 17 15 15 16 17 17 16 15 14 14 15 14 14 13 13 14 14 13 14 14
13 15 15 14 16 16 18 17 19 18 19 19 20 19 18 16 16 16 16 15 13 13 14 15 14 13 13 13 12 12 16 16 16 15 14 12 12 13 13 13 13 14 14
11 13 12 13 15 15 15 16 15 17 18 18 17 16 14 13 12 11 11 11 12 12 13 13 13 13 14 14 14 14 14 14 13 13 13 12 12 12 13 13 13 14 14
7 7 8 9 10 13 14 14 13 13 14 14 14 14 14 14 13 12 11 10 11 11 12 11 12 12 13 12 12 12 12 12 12 12 12 12 12 12 12 13 13 13 14

GFSGL_850_temp_069.txt.gz
Temp
21 21 21 21 22 22 21 21 21 22 22 21 21 21 21 21 21 20 20 20 20 20 20 20 20 20 21 21 21 21 21 21 21 22 22 23 22 22 22 22 22 22 22
22 21 21 21 21 22 22 21 21 21 22 21 21 20 20 20 20 20 20 20 19 19 20 20 19 20 20 21 21 21 21 21 21 21 21 22 21 22 23 22 22 22 22
21 21 21 21 21 22 22 22 21 21 21 21 20 20 20 20 21 21 20 20 20 20 20 20 20 19 20 21 21 21 21 21 21 21 21 21 21 22 22 22 21 22 22
21 21 21 21 21 21 22 22 22 22 22 21 21 21 21 21 21 21 21 21 21 20 20 20 20 20 20 20 20 21 21 21 21 21 21 21 21 22 21 21 22 23 23
21 21 21 20 20 20 21 22 22 22 22 22 22 21 21 21 21 22 21 21 21 21 21 20 20 20 20 20 20 20 20 20 20 20 20 20 20 20 21 22 22 22 22
22 21 20 20 20 19 19 20 21 21 21 22 21 21 21 21 22 22 22 21 21 21 21 21 21 20 20 20 20 20 20 20 20 20 20 20 21 22 22 22 22 21 20
22 22 21 21 20 20 19 19 20 21 21 21 21 22 22 22 22 22 22 22 21 21 21 22 22 21 21 20 20 20 20 20 20 21 20 22 22 22 21 21 21 21 20
23 23 23 22 22 21 20 19 19 19 20 21 21 21 22 22 22 22 22 21 21 22 21 21 22 22 22 22 21 20 20 21 21 21 21 21 21 21 21 20 20 21 21
22 23 24 23 23 22 21 21 20 19 19 20 20 21 21 22 23 23 22 22 21 21 22 21 21 22 22 22 21 21 21 21 22 22 21 21 21 21 21 20 20 19 19
23 22 24 24 23 23 23 22 21 21 20 20 20 20 21 22 23 23 23 22 22 22 22 22 21 22 22 22 21 21 21 23 23 23 22 21 21 21 20 20 20 19 19
21 22 25 24 24 23 23 23 22 21 21 20 20 20 20 21 22 23 23 22 23 23 22 22 23 23 23 23 22 22 22 23 22 22 21 21 22 21 21 21 20 20 20
22 23 24 24 24 24 23 23 23 22 21 21 20 20 20 21 22 23 23 23 23 22 23 23 23 24 23 23 23 23 22 22 22 22 21 22 22 21 21 20 20 20 20
22 23 23 23 24 24 23 23 22 22 21 21 20 20 20 21 22 23 23 23 23 22 23 23 23 23 22 22 22 22 22 22 22 22 22 22 21 20 20 20 19 19 20
22 23 23 23 23 24 23 23 23 22 21 20 20 20 20 20 20 21 23 23 23 22 22 22 22 21 21 21 21 22 22 22 22 22 22 21 20 20 19 19 19 20 20
21 22 22 23 23 23 23 22 22 22 22 21 20 20 20 20 21 22 23 24 24 24 23 22 21 21 21 21 22 22 22 22 22 22 21 20 20 20 19 19 19 20 19
20 21 22 23 22 23 23 22 22 21 21 20 20 21 21 21 21 21 22 23 24 23 23 22 22 21 22 22 22 22 22 22 22 21 20 20 20 19 19 19 19 20 19
18 19 21 21 22 23 22 22 22 21 21 20 20 20 20 20 21 21 22 23 23 23 22 23 23 22 22 22 22 22 22 21 21 20 20 20 20 19 19 20 20 19 19
17 18 19 20 21 21 21 21 21 21 21 21 20 20 20 20 21 22 22 23 23 22 23 23 22 22 22 22 21 21 21 21 21 20 20 20 20 19 19 19 19 19 19
15 17 18 19 21 21 21 21 21 21 21 21 20 21 20 20 20 21 22 23 23 23 22 22 21 21 21 21 21 21 21 21 20 20 20 20 19 19 19 19 19 19 19
13 14 16 17 18 21 22 21 20 21 20 21 21 21 20 20 20 21 21 21 22 22 22 22 22 21 21 21 21 19 19 20 20 20 19 19 19 18 18 18 18 18 18
12 13 14 16 18 19 20 19 20 20 20 20 20 20 21 20 19 19 20 20 20 21 21 22 21 21 21 21 22 25 17 18 18 18 18 18 17 17 17 17 17 17 17
11 12 13 14 15 17 17 17 17 17 17 18 18 18 19 19 20 18 18 19 20 21 21 19 19 20 19 19 18 17 18 18 18 18 17 17 17 17 17 17 17 17 16
10 10 12 13 13 15 15 16 16 16 16 17 17 17 17 17 19 19 18 17 17 17 17 17 17 17 17 17 18 18 18 17 17 17 17 17 17 16 16 16 16 15 15
10 10 10 11 12 11 12 13 15 15 16 16 15 15 15 16 16 16 17 16 16 16 16 16 15 15 15 16 16 15 16 16 15 15 16 16 16 16 16 15 14 14 14
7 8 9 10 10 9 12 9 13 13 12 13 14 15 15 14 13 12 14 15 13 14 15 14 14 14 14 15 14 14 14 14 15 15 15 15 15 14 13 13 13 14 14
5 6 6 6 7 8 8 10 10 10 10 11 12 12 11 11 11 13 10 8 12 13 14 13 13 13 12 13 12 13 12 12 12 13 13 13 13 12 12 12 12 13 13

GFSGL_850_temp_072.txt.gz
Temp
22 22 21 21 21 21 21 20 20 20 20 21 21 21 20 20 20 20 20 20 20 20 20 20 21 21 21 21 21 21 20 21 21 22 22 22 22 22 22 22 22 21 22
23 22 22 21 21 21 21 21 20 20 20 20 21 21 20 20 20 20 20 20 20 20 20 20 20 21 21 21 21 20 20 21 21 21 21 22 22 22 21 21 22 22 22
22 22 22 21 21 21 21 21 21 20 20 21 21 21 20 20 20 20 20 21 20 20 20 20 20 20 20 20 21 20 20 20 20 20 20 21 21 21 22 21 22 22 21
22 22 22 22 22 21 21 21 21 21 21 21 21 21 21 20 20 20 20 21 21 21 20 20 20 19 20 20 20 20 20 20 20 20 21 21 21 22 21 21 22 22 22
21 22 22 22 22 22 21 21 22 21 21 21 21 20 20 20 20 20 20 21 21 21 21 20 20 20 20 19 19 20 20 20 20 20 20 21 21 22 22 22 21 21 22
21 22 22 22 22 22 22 21 21 22 21 21 21 21 20 20 20 20 21 21 21 21 21 21 21 21 20 20 20 20 20 20 20 20 20 21 22 22 22 21 20 20 20
19 20 20 21 21 22 21 21 21 21 21 21 21 21 21 21 21 21 21 21 21 21 21 21 22 21 21 21 21 21 20 20 20 20 20 20 21 22 21 20 20 20 20
20 20 19 19 20 21 21 21 21 21 20 20 21 21 21 21 21 21 21 21 21 21 22 22 22 22 22 21 21 21 21 21 21 20 20 20 20 21 20 20 19 20 20
20 21 19 19 20 20 21 21 21 21 20 20 20 21 20 21 21 21 21 21 21 22 22 22 21 21 22 21 21 21 21 22 22 22 21 21 21 21 20 19 20 19 19
20 20 20 19 19 21 21 22 21 21 21 21 20 20 20 20 21 21 21 21 21 21 22 22 22 22 22 22 21 21 21 22 22 22 21 21 21 20 20 20 19 18 18
21 22 20 20 21 20 21 22 22 22 21 21 20 21 20 21 21 21 21 20 21 21 22 22 22 23 22 22 22 21 22 22 22 21 21 21 21 21 21 20 19 19 19
19 20 19 21 22 20 21 21 22 22 22 21 21 20 20 20 21 21 21 21 21 21 22 23 23 23 23 22 22 22 22 22 21 21 21 22 22 22 21 20 19 20 20
19 19 21 22 22 21 21 21 22 22 22 21 21 20 21 21 21 22 22 22 22 21 22 23 23 23 22 22 22 22 22 21 21 21 21 22 22 22 20 20 20 19 20
16 18 22 22 22 22 19 21 22 22 22 21 20 21 21 21 21 22 22 22 23 22 22 22 22 22 21 21 21 21 21 21 21 21 22 22 22 21 21 20 19 20 19
16 19 21 21 22 22 22 22 22 23 23 23 22 22 22 21 22 22 22 22 23 23 23 21 20 21 21 21 20 21 21 20 21 21 21 22 21 21 20 20 19 19 19
14 15 18 20 22 23 22 22 23 22 21 22 22 22 22 22 22 21 21 22 22 21 21 20 21 21 21 21 21 21 21 21 21 21 21 20 20 20 19 20 20 19 19
12 14 16 18 19 21 21 22 22 22 21 21 21 22 21 21 20 20 20 20 21 21 20 20 21 21 22 22 21 21 20 21 21 21 20 20 20 20 19 19 19 19 19
13 14 14 17 18 19 21 20 22 22 22 21 21 21 21 20 20 20 20 20 20 21 21 21 21 22 22 22 21 21 21 20 20 20 21 20 19 19 19 19 19 19 19
12 13 14 16 17 18 20 21 21 21 21 21 21 21 21 20 20 20 20 20 21 21 21 22 23 23 22 22 20 20 20 20 19 19 19 20 19 18 18 18 19 19 19
11 12 13 15 16 18 19 21 21 21 21 21 21 21 21 20 20 20 20 21 21 21 22 22 23 22 21 21 21 20 20 20 20 21 21 21 21 19 18 16 18 18 18
10 12 12 14 15 17 18 19 20 21 21 21 21 20 21 20 21 20 20 20 20 21 21 22 21 20 20 20 20 21 21 21 21 21 21 21 20 22 19 18 17 17 17
10 11 11 12 14 15 16 16 17 19 20 21 21 20 19 19 19 18 18 19 19 19 20 20 20 19 19 19 20 20 20 20 18 18 20 20 19 18 16 17 17 17 17
9 10 10 11 13 14 15 16 16 17 17 18 18 18 17 17 18 17 18 18 18 18 18 19 19 19 19 19 19 18 17 18 18 19 18 17 16 16 16 16 16 16 16
8 10 10 10 10 11 12 14 14 14 14 16 16 15 15 15 15 16 16 16 16 16 16 16 16 16 16 17 17 17 17 16 16 16 16 16 16 16 16 16 16 15 15
7 8 8 9 9 10 10 10 10 10 13 12 13 14 15 14 14 14 14 14 14 16 15 14 14 13 13 13 14 15 14 15 14 14 15 15 15 15 15 15 15 14 13
6 5 7 7 8 9 10 8 9 8 8 9 8 10 11 12 10 11 9 10 11 10 10 12 11 11 10 11 11 11 11 12 12 12 12 13 14 14 13 13 13 12 13

GFSGL_850_temp_075.txt.gz
Temp
22 22 22 22 22 21 21 20 20 20 20 20 20 20 20 20 20 19 19 19 19 19 19 20 20 20 20 20 20 20 20 20 20 21 22 22 22 22 22 22 21 21 21
23 22 22 22 22 22 22 21 20 20 20 20 20 20 20 20 20 20 19 19 19 19 19 19 20 20 20 20 21 20 20 20 20 20 21 21 21 22 21 22 22 21 21
22 22 22 22 22 22 22 22 21 20 20 20 20 20 20 20 20 20 19 19 19 19 19 19 20 19 19 20 20 20 20 20 20 20 20 21 21 21 22 22 21 22 22
21 21 22 22 22 22 22 22 22 21 20 20 20 20 20 20 21 20 20 20 20 20 20 20 19 19 19 20 20 19 20 20 20 20 20 20 21 21 21 21 22 22 23
19 21 21 22 22 22 22 22 22 22 21 21 20 20 20 20 20 21 20 20 20 20 20 20 20 20 20 19 19 19 19 19 19 20 20 20 21 21 21 21 20 20 22
19 20 21 21 22 22 22 22 22 21 22 22 21 20 20 20 20 20 20 20 20 20 20 21 21 21 20 20 20 19 19 19 19 19 19 20 21 21 22 21 20 20 20
19 19 19 19 20 21 21 22 22 22 21 21 22 22 21 20 20 20 20 20 20 20 20 21 21 21 21 21 20 20 20 19 19 19 19 20 21 21 21 20 20 19 19
19 17 17 18 19 20 20 21 21 21 21 21 21 21 22 22 21 20 20 20 20 20 21 21 21 21 21 21 21 20 20 20 20 20 20 21 21 21 20 20 20 19 19
18 18 18 18 19 19 19 20 20 20 21 21 21 21 20 21 22 22 21 20 20 20 21 21 21 21 22 21 21 20 20 21 21 21 21 21 21 21 20 19 20 19 19
16 17 18 19 19 18 18 19 19 20 21 21 21 21 21 20 21 22 21 21 21 20 20 21 22 21 22 22 21 21 20 21 21 21 21 21 21 20 20 20 20 19 19
16 17 17 17 17 18 18 19 20 19 20 20 21 21 21 21 21 21 21 21 21 21 21 21 22 23 22 22 22 21 21 21 21 21 21 21 21 21 21 21 20 19 19
15 16 17 17 17 18 20 21 21 21 20 20 21 21 21 21 21 21 21 21 21 20 21 22 22 23 23 23 22 22 21 21 20 21 20 21 21 22 22 21 20 20 19
15 16 17 18 19 20 21 22 21 21 19 18 19 21 22 22 22 21 21 21 20 20 20 21 22 23 23 22 22 22 21 21 21 21 21 22 22 22 21 22 21 20 19
16 17 17 17 19 20 21 22 22 22 21 19 18 20 20 22 22 22 22 21 21 20 20 20 21 21 21 22 21 21 21 21 21 21 21 21 21 21 21 21 20 19 19
16 16 17 16 17 20 20 22 22 23 23 23 22 21 21 22 23 23 23 23 22 22 21 21 20 20 21 21 22 22 21 20 20 20 20 20 20 20 21 20 19 19 19
15 15 16 17 17 18 19 20 21 23 23 23 21 20 20 22 22 21 21 21 21 20 20 20 20 20 21 21 21 22 21 20 21 20 20 20 20 20 20 20 19 20 20
13 14 13 16 15 15 17 20 22 23 23 23 23 23 21 21 21 20 20 20 19 19 19 19 19 20 21 22 21 21 21 21 20 19 19 20 20 20 20 19 19 19 19
12 12 12 14 13 15 16 18 19 19 19 21 22 21 22 21 21 22 21 20 19 19 19 19 19 20 20 20 21 21 21 21 20 19 20 20 20 20 19 18 18 18 18
11 12 12 13 13 14 15 16 17 19 21 22 21 21 21 21 21 20 20 20 20 20 20 19 20 20 21 21 21 21 22 20 20 20 20 20 20 20 20 19 18 18 19
11 11 11 11 12 15 15 15 16 18 19 20 20 21 21 20 20 20 20 20 20 20 20 20 20 20 21 21 21 21 20 21 20 21 20 21 21 22 22 22 22 21 21
10 10 10 11 11 13 14 15 16 17 18 20 20 21 21 21 21 20 20 20 20 20 20 19 20 20 21 20 21 20 20 20 20 20 20 20 19 19 20 19 19 19 19
9 9 9 10 11 12 13 14 15 16 18 19 19 20 20 20 21 20 20 19 19 19 19 19 20 20 21 20 20 20 19 19 20 19 19 19 19 19 19 20 19 18 18
7 8 9 9 11 12 12 13 14 14 15 16 16 17 18 19 19 18 18 18 18 18 18 18 18 18 18 18 17 17 17 18 18 18 18 19 17 17 18 18 18 19 18
6 7 7 9 10 10 10 12 12 14 15 16 16 16 16 17 18 17 17 17 17 16 14 17 16 16 16 16 16 17 17 16 16 16 15 14 15 15 15 15 16 16 16
5 6 7 8 8 9 9 9 10 10 12 13 14 15 14 14 14 15 15 15 14 14 14 14 14 14 14 14 14 14 14 14 14 14 14 14 13 13 14 14 13 14 15
3 4 5 6 6 7 7 7 7 7 9 10 10 10 10 9 10 9 9 10 11 12 12 12 9 11 11 11 11 12 11 11 11 11 12 12 13 12 11 11 11 12 12

GFSGL_850_temp_078.txt.gz
Temp
22 21 22 21 21 20 21 21 20 20 20 20 20 20 19 19 19 19 19 19 19 19 19 19 20 20 20 20 20 20 20 20 20 20 20 21 21 21 21 22 22 22 21
22 22 22 22 21 21 21 21 21 20 20 20 20 20 20 20 19 19 19 19 19 19 19 19 19 19 19 19 20 20 20 20 20 20 20 20 21 21 21 22 22 22 21
21 21 21 22 21 21 21 21 21 21 21 20 20 20 20 20 20 20 20 19 19 19 19 19 19 19 19 19 19 19 19 19 19 20 20 20 20 21 22 22 22 22 22
19 20 21 21 22 21 21 21 21 21 21 21 20 20 20 20 20 20 20 20 20 19 19 19 19 19 19 19 19 19 19 19 19 19 19 20 20 21 21 21 22 22 22
19 19 20 21 21 21 21 21 21 21 22 21 21 20 20 20 20 20 20 20 20 20 20 20 20 20 20 20 19 19 19 19 19 19 19 20 20 21 21 20 20 20 22
18 20 21 21 21 21 21 21 21 21 21 21 22 21 21 20 21 20 20 20 20 20 20 20 20 20 20 20 20 20 20 19 19 19 19 20 20 20 20 20 20 20 20
18 18 19 19 21 21 21 20 21 21 21 21 21 22 22 21 21 21 21 20 20 20 20 20 20 20 20 20 20 20 20 20 20 19 20 20 20 20 20 20 19 20 20
17 18 19 19 20 20 20 20 20 20 20 21 21 21 21 22 22 22 21 21 21 21 21 21 20 20 20 20 20 20 20 20 20 20 20 20 20 20 20 20 19 19 20
16 16 16 17 18 18 19 19 19 20 20 20 21 21 21 21 21 21 21 21 21 21 21 21 21 21 21 21 20 20 20 21 21 20 20 20 20 20 20 19 19 19 20
15 16 16 17 17 17 19 19 19 19 19 19 20 20 21 21 21 21 20 20 21 21 21 22 22 22 22 22 21 21 21 21 21 21 21 21 21 20 20 20 20 20 20
15 15 15 16 16 17 17 18 18 18 19 19 20 20 21 21 21 21 21 20 20 21 21 22 22 22 22 22 22 21 22 21 21 21 21 21 21 21 21 21 20 20 20
15 15 15 16 16 16 17 17 17 17 19 20 21 20 21 22 22 21 21 21 20 20 21 21 22 22 22 22 21 22 22 21 21 21 21 22 22 22 22 21 21 21 20
14 16 16 15 15 16 17 16 17 18 19 20 21 21 21 21 22 22 22 21 21 20 20 21 21 21 21 21 21 22 21 21 21 20 21 22 22 22 22 21 21 21 21
14 16 16 17 17 17 15 17 18 19 19 21 20 21 22 21 22 22 22 21 21 21 20 21 21 20 20 20 21 21 21 21 21 21 21 21 21 21 21 21 21 21 20
12 13 14 16 17 18 18 17 19 20 19 19 21 21 23 23 24 24 23 22 22 22 21 21 20 20 20 20 21 22 22 22 21 21 21 20 20 20 21 20 20 20 20
10 12 13 15 17 18 18 17 16 18 19 18 20 19 21 21 22 23 23 21 21 20 19 20 20 20 20 21 22 22 23 22 22 21 20 20 20 20 20 20 19 19 19
9 10 11 12 15 14 16 16 16 18 20 21 21 21 22 21 21 22 21 20 19 19 19 19 20 19 19 20 20 21 22 23 22 21 21 21 20 19 19 19 19 19 19
10 10 11 11 13 13 13 16 15 16 17 19 19 21 22 22 22 22 18 18 18 19 20 19 19 19 19 19 20 20 21 21 21 21 21 21 20 20 19 19 19 19 19
9 10 11 11 13 13 13 15 14 15 15 17 20 23 22 21 21 21 19 18 19 19 20 20 20 20 19 20 21 21 21 21 21 20 21 21 21 20 19 19 19 19 19
9 10 10 10 12 13 12 14 15 15 16 16 17 21 21 21 21 21 21 20 19 20 20 20 20 20 20 19 20 21 20 20 21 20 21 21 20 20 20 19 20 20 20
8 9 10 10 9 10 11 12 13 13 15 16 16 17 19 20 21 20 20 20 20 20 19 19 19 19 19 19 19 20 20 20 21 21 21 20 21 20 20 20 19 19 18
6 8 9 9 9 9 10 11 12 13 14 15 16 16 18 18 20 20 20 20 20 20 19 19 19 19 19 18 19 18 18 19 20 20 20 20 20 20 19 19 19 19 18
4 5 6 6 7 8 10 10 12 13 13 13 13 14 16 17 17 17 18 19 19 18 18 17 18 18 18 18 18 17 17 18 19 18 19 19 19 18 18 17 17 17 18
3 4 5 6 7 8 9 9 10 12 12 13 13 13 14 15 16 16 16 17 17 17 16 16 17 17 17 17 17 17 16 16 16 16 16 16 16 16 16 17 17 17 16
3 3 4 5 6 7 8 8 9 10 10 11 12 12 13 13 14 15 14 14 14 13 14 14 13 14 14 14 14 14 15 15 14 15 15 15 14 14 14 14 15 15 14
0 2 3 3 4 4 5 5 7 7 7 7 8 8 9 9 11 13 11 10 11 11 11 12 10 11 12 11 11 12 12 13 13 12 12 13 13 13 12 12 12 12 13

GFSGL_850_temp_084.txt.gz
Temp
21 20 20 20 21 21 21 19 18 18 18 18 19 19 18 18 18 19 18 19 19 18 18 18 18 18 19 20 20 20 20 21 21 22 22 21 19 19 20 21 21 21 22
20 20 20 20 19 19 21 21 20 19 18 18 19 19 19 18 18 20 19 19 18 18 18 18 18 19 19 20 19 19 20 20 20 20 20 21 20 20 19 22 20 21 21
20 19 19 19 19 21 20 21 21 20 20 19 18 18 19 18 18 19 20 18 18 18 18 18 18 18 18 19 19 20 20 20 20 20 20 21 21 20 20 20 20 21 22
21 20 18 21 21 21 22 20 20 21 21 21 20 19 18 18 18 18 19 20 19 19 19 19 18 18 18 18 18 18 19 19 20 20 20 21 21 21 21 21 22 22 22
18 19 20 19 18 20 20 21 21 20 20 21 21 21 19 19 19 19 19 19 19 19 19 19 18 19 19 19 19 19 19 19 20 21 22 22 22 22 21 21 21 22 22
16 17 18 18 18 18 18 19 21 20 20 20 21 21 21 20 20 19 19 19 19 19 19 19 20 20 20 20 20 20 19 18 18 19 21 21 21 20 21 21 21 21 21
15 16 16 17 17 17 17 17 17 20 19 19 20 20 21 21 21 20 20 19 20 19 19 19 20 20 20 21 21 20 20 20 20 20 20 20 20 19 19 19 19 19 20
15 15 16 16 17 17 17 17 17 17 17 17 19 20 21 21 21 21 21 21 20 19 20 19 19 20 20 19 20 19 20 20 20 21 21 21 22 21 20 19 19 19 19
13 14 15 15 16 16 17 17 17 17 17 17 17 18 19 22 22 22 21 20 20 21 19 19 19 19 20 20 20 20 20 20 20 20 21 21 21 21 21 20 19 20 22
14 13 13 14 15 16 16 16 17 17 17 17 18 17 17 19 21 22 22 21 19 19 20 20 20 20 21 21 22 21 21 20 20 20 20 21 22 22 21 21 21 20 21
14 14 13 13 13 14 15 16 16 17 17 18 17 17 18 18 19 21 22 21 20 20 20 20 20 20 22 22 22 22 22 21 20 20 20 20 20 20 20 20 21 21 21
13 14 14 13 13 13 14 15 16 16 17 17 17 18 18 18 17 19 21 21 21 20 20 21 21 20 20 20 21 22 22 22 19 20 21 21 22 22 22 22 20 20 21
12 13 14 14 14 14 14 14 15 15 15 16 17 17 18 18 18 18 19 21 21 20 20 19 20 20 20 19 19 19 21 20 20 19 20 21 22 22 22 21 21 20 21
8 12 12 13 14 14 14 12 14 14 15 15 16 16 17 18 18 18 19 19 20 21 20 20 20 20 19 18 18 18 20 20 19 19 20 21 21 22 22 21 20 21 21
8 9 10 11 11 13 13 12 12 13 13 13 15 15 16 16 18 18 18 19 19 20 21 20 20 19 19 18 18 18 18 19 20 18 19 20 21 21 21 21 21 21 21
7 8 9 9 10 11 11 13 15 15 15 15 15 16 17 17 17 17 17 19 20 18 19 19 18 19 20 20 20 19 19 19 20 19 19 19 20 21 21 21 21 21 21
6 6 7 7 9 10 10 10 11 16 16 16 16 17 17 17 17 16 17 19 19 19 18 18 18 20 21 20 19 18 18 18 19 19 20 20 20 20 21 21 22 21 21
5 5 5 7 8 8 8 9 9 10 13 16 16 15 17 16 17 17 18 18 20 19 18 18 18 19 19 19 18 18 18 18 19 19 20 20 20 20 20 21 21 21 21
5 4 4 5 6 6 8 9 9 11 12 13 14 12 12 17 18 17 17 18 20 20 19 18 18 18 18 18 18 18 18 18 19 18 18 18 19 19 20 20 21 21 21
4 4 5 5 5 6 7 8 10 11 11 10 11 10 11 13 18 17 17 18 18 17 18 18 19 18 18 18 19 19 19 19 19 19 19 18 18 18 19 19 19 19 19
2 3 3 3 4 4 5 6 7 8 9 8 10 12 13 12 17 17 16 16 18 19 19 18 18 18 18 18 19 19 19 19 19 18 19 18 18 18 19 19 19 19 19
1 1 2 3 3 3 4 5 6 6 6 8 11 11 13 13 14 17 16 17 16 16 19 19 18 18 18 18 20 20 20 19 18 18 18 18 18 18 18 18 19 19 19
0 0 0 1 2 3 3 4 4 5 8 9 10 10 12 13 13 15 15 14 15 15 16 19 19 18 18 19 19 18 20 19 18 18 18 18 17 18 17 18 17 18 18
-1 -1 -1 0 1 1 2 3 4 4 6 7 9 10 11 11 11 13 13 13 14 15 15 16 17 16 16 19 17 18 19 20 20 20 17 17 16 17 17 17 17 16 17
-2 -2 -2 -1 -1 0 1 1 3 4 5 6 7 8 9 10 9 11 12 12 13 13 13 14 15 15 15 15 15 17 19 20 19 16 15 15 15 15 15 15 15 15 16
-3 -3 -3 -2 -2 -2 -1 0 1 3 4 5 6 7 8 8 8 10 11 10 10 10 11 12 12 13 14 14 14 14 14 15 15 14 13 13 14 14 14 14 14 14 14

GFSGL_850_temp_087.txt.gz
Temp
20 20 20 20 19 19 19 19 19 20 20 20 19 20 19 19 18 18 20 20 19 18 20 20 19 19 20 22 22 22 22 22 22 23 23 22 22 21 21 21 21 22 23
21 21 20 20 20 20 19 19 19 19 19 19 19 19 19 19 19 19 19 20 19 19 19 19 19 20 19 20 21 21 21 21 21 21 21 21 22 22 21 21 20 21 22
22 22 21 21 20 20 20 19 19 18 19 19 19 19 18 19 19 19 19 19 19 19 19 19 19 19 19 20 20 21 21 21 21 21 21 22 22 22 22 21 22 22 23
20 22 22 20 20 20 20 19 19 19 18 19 19 19 19 19 19 19 19 19 19 20 20 20 20 19 19 19 19 19 20 20 20 21 21 22 23 23 23 22 23 23 23
20 20 20 20 19 19 19 18 19 19 19 19 19 19 19 20 20 20 20 20 19 19 20 20 20 20 20 19 19 20 20 20 20 22 22 23 23 23 22 22 22 23 22
18 19 18 19 19 18 19 18 18 20 19 19 19 19 19 20 21 21 20 20 20 19 19 19 20 20 20 20 20 21 20 20 20 20 21 22 22 21 22 22 21 21 21
16 17 18 19 18 18 18 18 18 18 18 18 19 19 19 20 20 21 21 20 20 20 20 20 20 21 21 21 21 21 21 21 20 20 20 21 21 21 21 21 20 20 20
14 15 15 16 17 17 18 18 18 18 18 18 18 18 19 19 20 20 21 21 20 20 20 20 20 20 21 21 20 20 20 20 21 21 21 21 21 22 21 20 20 20 20
12 14 15 15 15 16 17 17 18 18 18 18 18 18 18 19 19 19 20 20 20 20 21 21 21 20 20 21 20 20 20 20 21 21 21 21 21 21 21 20 20 20 21
12 11 11 14 14 14 15 16 17 17 17 18 18 18 19 19 19 18 19 18 19 20 20 20 21 21 21 20 20 20 20 20 20 21 21 21 21 21 20 20 21 19 20
11 11 11 12 15 15 14 14 16 16 17 17 18 18 18 18 19 18 18 18 18 19 20 20 21 21 21 21 21 20 20 20 19 20 20 20 20 21 21 21 21 21 21
10 10 11 11 12 13 15 15 15 15 15 16 18 18 18 19 19 18 18 18 19 18 19 21 22 22 21 21 21 21 21 20 19 19 19 20 21 22 23 23 23 23 22
9 10 10 11 11 11 15 15 13 14 14 14 15 16 17 17 18 19 18 18 19 19 20 20 20 21 21 21 21 20 20 20 19 18 18 19 20 21 22 23 23 22 21
9 9 10 11 11 12 12 13 14 15 15 13 14 14 16 17 17 17 17 17 18 18 18 19 20 20 20 20 20 20 19 19 19 18 18 19 20 21 22 22 22 22 22
9 9 10 11 12 12 13 13 12 14 13 14 14 15 15 16 17 16 16 17 17 17 17 17 17 18 19 19 19 19 19 19 18 18 18 19 20 21 22 22 22 23 23
8 9 10 10 11 12 12 13 14 13 15 16 16 15 16 16 16 17 17 16 16 16 17 17 18 18 19 20 20 20 20 20 20 19 19 19 19 20 21 22 22 22 22
5 6 7 8 10 11 11 12 12 13 13 14 15 16 15 16 16 16 16 17 17 16 18 18 19 19 19 19 19 21 21 22 21 21 20 21 20 21 21 21 21 22 22
3 5 5 5 7 9 10 11 11 12 13 13 12 13 16 16 16 16 16 16 16 17 18 18 19 18 20 20 19 19 20 21 20 20 20 20 20 21 21 21 21 22 22
3 3 3 4 5 6 7 7 8 9 10 12 12 12 13 13 16 16 16 14 15 16 17 19 20 19 19 20 21 20 19 20 19 19 19 19 19 20 20 20 21 21 21
2 2 3 3 4 4 5 6 7 8 9 10 11 12 12 12 12 15 15 14 13 14 16 18 17 17 19 20 20 19 20 19 19 19 19 19 19 19 19 19 19 20 20
0 1 1 2 3 3 4 4 5 7 7 8 9 10 10 10 11 14 15 15 14 14 15 16 17 17 18 18 18 19 19 19 19 19 19 19 19 19 19 19 19 19 18
0 1 1 1 1 2 2 3 3 4 5 7 9 10 9 8 9 13 14 14 14 14 14 15 15 16 17 18 18 17 18 18 18 18 19 19 19 18 18 18 18 18 18
-1 -0 -0 -0 0 1 1 1 2 3 4 5 7 7 6 7 7 11 13 13 13 13 13 13 14 15 16 17 17 17 19 18 18 19 19 19 19 20 17 18 18 17 17
-2 -2 -2 -2 -1 -1 -1 -0 1 1 2 3 4 5 4 5 6 8 11 12 13 13 12 13 14 15 15 15 17 18 18 19 19 19 19 19 18 18 17 17 16 16 17
-2 -3 -3 -3 -3 -2 -2 -1 -1 0 1 2 3 3 4 5 6 6 7 9 10 11 12 12 14 14 14 14 15 17 17 17 18 17 15 16 15 15 15 15 15 15 16
-2 -3 -3 -3 -3 -3 -3 -3 -2 -1 -1 0 2 2 3 4 5 5 6 7 9 10 10 11 11 13 13 13 13 14 15 15 15 15 15 15 14 14 14 15 16 18 15

GFSGL_850_temp_093.txt.gz
Temp
21 22 21 21 20 20 20 20 20 20 20 20 20 20 21 20 19 20 19 20 19 20 20 20 21 21 21 21 21 22 22 21 21 22 22 22 22 22 23 22 22 22 22
18 19 21 21 20 20 20 20 20 20 20 20 20 20 20 20 20 19 20 20 19 19 20 20 20 21 21 22 21 21 21 21 21 21 21 21 22 22 22 22 22 22 22
16 19 19 19 20 20 21 21 21 20 21 21 21 21 21 21 20 20 20 20 20 19 19 19 20 20 20 20 21 21 21 21 21 21 21 20 21 21 21 22 22 22 22
17 18 19 20 18 20 20 20 20 20 20 20 20 20 20 20 19 19 20 20 20 19 20 19 19 19 19 20 20 20 20 21 21 20 20 20 21 21 21 21 22 22 22
16 17 17 19 19 20 20 18 19 20 20 19 19 20 19 19 20 20 20 20 20 20 20 20 20 20 20 19 20 20 20 20 20 20 20 20 21 21 21 21 22 22 23
16 16 18 16 17 19 19 17 18 18 18 19 19 19 19 19 20 20 20 19 20 20 20 20 20 20 20 20 20 20 20 20 21 21 20 20 21 22 22 22 22 21 22
15 16 16 16 17 17 16 19 19 19 19 18 19 19 19 19 19 19 19 19 19 20 20 20 20 20 20 20 20 20 20 20 20 20 20 20 21 21 21 21 21 20 21
14 14 15 16 16 16 16 17 18 19 19 19 19 18 18 19 19 19 19 19 20 19 19 19 19 20 20 20 20 20 20 20 20 20 20 21 21 21 21 20 20 20 21
13 13 13 14 15 16 16 16 17 17 17 18 18 18 18 18 18 19 19 19 20 20 20 20 20 20 20 20 19 20 20 20 21 21 21 21 21 21 20 20 20 20 21
13 14 15 15 15 15 16 16 16 16 17 18 17 17 17 18 18 18 18 18 19 19 19 19 20 20 20 20 20 20 20 20 20 21 21 21 21 21 20 20 20 20 20
12 13 13 14 14 15 15 16 16 16 17 16 16 16 16 17 17 17 18 18 18 18 18 19 19 18 18 19 19 19 20 20 20 20 20 20 20 20 20 20 20 20 20
10 11 12 12 13 13 14 15 15 15 16 15 15 15 15 15 16 16 17 18 18 18 18 18 18 18 18 18 19 19 19 19 20 20 20 20 20 20 20 20 20 20 20
10 10 10 10 11 12 12 13 13 14 14 14 14 14 15 15 15 16 16 16 16 18 17 17 17 18 19 19 19 19 19 19 19 19 20 21 21 21 20 20 20 20 19
9 9 8 9 9 10 11 11 12 12 13 13 14 14 14 15 16 16 16 17 16 16 16 16 16 17 17 19 20 20 19 19 19 19 20 20 20 20 20 20 20 20 19
9 9 8 8 9 9 10 10 11 11 11 12 12 13 13 13 14 15 15 16 17 17 17 17 17 18 18 18 18 19 19 19 19 20 20 20 20 20 20 20 20 19 18
8 8 8 9 9 8 8 10 11 10 10 11 12 12 12 12 13 13 14 14 15 16 17 17 18 18 18 18 18 18 18 18 18 19 19 19 19 19 20 20 20 19 19
5 6 7 7 8 7 7 7 8 10 10 10 11 11 11 11 12 12 12 13 14 14 15 16 16 17 17 17 17 18 18 18 19 19 18 18 19 20 20 20 20 20 19
4 4 4 5 5 5 5 5 5 6 7 8 9 10 10 10 10 11 12 12 12 12 13 14 14 15 15 14 14 15 16 16 17 18 19 19 19 18 18 19 19 20 20
5 5 4 4 4 4 3 3 2 3 4 5 6 7 7 8 9 10 10 11 11 12 11 12 11 12 12 12 13 14 14 15 16 16 17 18 18 19 19 19 18 18 18
5 4 3 3 2 2 2 2 2 2 2 2 3 4 4 5 7 8 9 9 9 10 10 10 11 13 13 13 14 14 15 16 16 16 16 17 18 18 18 18 18 17 18
4 5 4 4 3 2 2 1 1 1 1 2 1 2 2 3 4 5 6 7 8 8 9 9 10 11 12 12 13 14 14 15 16 15 15 16 16 16 17 18 18 18 18
4 4 4 4 3 3 2 1 0 -0 -1 -1 -0 0 0 1 2 3 4 5 6 8 7 8 9 9 10 11 11 12 14 15 16 15 15 15 15 16 16 17 18 19 18
4 4 3 3 2 2 2 1 -0 -1 -2 -3 -2 -2 -1 -0 -0 1 2 3 4 5 7 7 8 8 9 10 11 11 11 13 13 12 13 14 15 15 15 16 17 17 16
4 3 2 1 1 0 1 0 -1 -1 -2 -3 -3 -3 -2 -2 -1 -0 0 1 2 3 4 5 7 8 8 9 10 10 10 10 11 11 12 13 13 14 15 15 16 17 17
3 2 2 1 1 0 -0 -0 -2 -2 -3 -3 -4 -4 -4 -3 -2 -2 -1 -1 0 1 1 1 3 6 7 7 7 7 8 9 10 11 12 13 13 14 14 15 16 17 17
3 2 2 1 1 0 -1 -0 -1 -2 -2 -3 -4 -4 -4 -4 -3 -3 -2 -2 -1 0 1 1 2 3 4 5 6 7 8 8 10 11 12 13 13 13 13 14 14 15 14

GFSGL_850_temp_096.txt.gz
Temp
19 20 20 20 20 20 20 19 19 20 20 20 20 20 20 20 19 19 19 19 20 20 20 20 21 21 21 21 21 21 21 21 21 21 21 21 21 22 22 22 22 22 22
19 19 19 19 19 20 20 20 19 19 20 20 20 20 20 20 19 19 19 20 19 19 19 20 21 21 21 21 21 21 21 21 21 21 21 21 21 21 21 21 22 22 22
19 19 19 19 19 19 20 20 19 19 19 20 20 20 20 20 19 20 19 19 19 20 19 19 20 20 20 20 21 21 21 21 21 21 21 21 21 21 21 21 21 21 21
17 18 19 19 19 19 19 19 19 19 20 20 20 20 20 19 19 19 19 19 19 19 19 20 20 20 20 19 19 19 19 20 20 20 20 20 21 21 20 20 21 22 22
17 16 17 18 19 19 20 19 19 19 19 19 20 20 20 20 20 19 19 19 19 19 19 19 19 19 19 20 20 19 19 19 19 20 20 20 20 21 21 21 21 21 22
16 16 18 18 18 18 18 18 19 19 18 18 19 20 19 19 19 20 19 19 19 19 19 19 19 19 19 19 20 19 20 20 20 19 20 20 20 21 21 20 20 20 20
15 16 17 18 17 17 17 17 18 20 20 19 19 19 19 19 19 19 19 19 19 19 19 19 19 19 19 19 20 20 20 20 20 20 20 20 20 21 20 21 21 20 20
15 15 15 15 16 16 16 15 17 19 20 19 19 19 19 19 19 19 18 18 19 19 19 19 19 19 19 19 19 20 20 20 20 20 20 20 20 20 20 20 20 20 21
13 13 13 13 13 14 15 16 16 17 18 18 18 18 18 19 19 19 19 18 19 19 19 19 19 19 19 19 19 19 20 20 20 20 20 20 20 20 20 19 19 19 20
12 13 13 13 14 14 14 15 15 15 15 16 16 16 17 17 18 18 20 19 18 18 19 19 19 19 19 19 18 19 19 20 20 20 20 20 20 20 19 19 19 19 19
12 12 12 13 13 13 14 14 14 15 15 15 15 15 15 15 16 16 17 17 17 18 18 18 18 19 19 19 18 18 18 18 19 19 19 20 20 20 21 21 20 20 20
11 12 12 13 13 14 14 14 14 14 14 14 14 14 14 14 14 15 15 16 16 16 17 17 17 17 18 19 18 17 18 18 18 18 19 19 20 20 21 21 21 21 20
10 10 10 11 11 11 12 13 13 13 13 13 13 13 13 14 14 15 15 16 16 15 15 16 16 16 16 17 18 18 18 18 18 18 19 19 19 20 20 20 20 20 20
9 9 9 9 10 10 10 10 11 11 11 11 12 12 13 13 14 13 14 14 15 16 16 17 17 17 17 17 17 17 18 18 17 18 18 19 19 19 20 20 20 20 20
9 9 9 9 9 10 10 10 10 10 9 10 10 10 11 12 12 12 13 13 13 14 16 17 17 17 18 18 18 18 18 18 17 17 17 18 18 18 19 19 19 19 19
8 8 9 9 9 9 10 11 9 9 10 9 9 9 10 10 10 11 12 12 12 13 14 15 16 16 17 17 17 17 17 17 16 16 16 16 17 18 18 18 18 18 19
8 8 8 8 8 9 9 9 10 12 10 10 10 10 10 10 10 10 10 11 11 12 12 13 14 14 15 15 15 15 14 13 14 15 15 15 16 17 18 18 18 18 18
6 7 7 7 8 8 8 8 8 8 10 11 10 10 10 10 10 10 9 9 10 11 11 12 12 11 12 12 13 13 13 15 15 15 14 15 15 16 17 17 17 17 18
6 6 6 6 6 6 6 7 7 7 7 7 8 9 8 8 10 10 9 8 8 9 10 11 9 10 10 10 10 12 13 13 14 15 15 15 15 15 16 16 17 16 17
5 5 5 5 5 5 5 5 5 5 5 5 5 5 5 5 7 8 8 7 7 7 7 8 8 9 9 9 9 10 11 12 13 14 14 15 15 15 15 16 16 16 17
4 4 4 4 4 4 3 3 3 3 3 3 3 3 3 3 3 2 3 4 3 3 4 5 6 7 7 7 8 8 9 10 11 12 13 14 14 15 16 16 15 15 16
4 4 4 4 4 3 3 3 3 3 2 2 2 2 2 2 2 0 -1 -0 1 2 2 3 4 5 6 6 7 7 8 8 9 10 12 12 12 13 14 14 14 14 15
4 4 4 3 3 2 2 2 1 1 1 0 -0 -0 0 0 -1 -2 -2 -2 -1 -1 0 1 2 2 3 5 6 7 7 8 8 8 10 11 11 11 11 12 13 14 14
4 4 4 3 3 3 2 2 1 1 1 -1 -1 -1 -2 -3 -3 -2 -3 -3 -2 -2 -1 -1 -1 -0 1 3 3 6 7 7 7 8 7 7 8 8 10 11 13 13 14
4 4 4 3 3 3 2 1 1 0 0 -1 -2 -2 -2 -3 -3 -4 -4 -4 -4 -3 -2 -2 -2 -1 -0 0 1 2 5 6 7 7 6 6 7 8 10 10 12 13 13
4 4 4 3 3 2 2 1 0 0 -0 -1 -2 -2 -3 -3 -3 -4 -5 -5 -4 -4 -3 -2 -1 -0 -0 0 1 1 2 3 3 5 5 6 8 9 9 11 12 12 13

GFSGL_850_temp_102.txt.gz
Temp
18 19 19 18 19 19 19 19 19 19 19 19 19 19 19 19 18 19 18 19 19 19 19 19 19 19 20 20 20 20 20 20 20 21 21 21 21 21 21 21 21 21 21
19 18 18 18 18 18 18 18 18 18 19 19 19 19 19 19 19 19 18 18 19 19 18 18 19 19 19 19 19 19 20 20 20 20 20 20 21 20 20 20 20 20 20
18 18 18 18 18 19 19 19 18 19 19 19 19 19 19 19 19 19 19 18 19 19 19 18 19 18 19 19 19 19 19 19 19 18 19 19 19 19 20 20 20 20 21
17 17 17 17 17 18 18 19 19 18 19 19 19 19 18 18 19 19 19 19 19 19 19 19 19 18 18 18 18 18 18 18 18 18 18 19 19 19 19 19 20 20 21
15 16 16 16 17 18 18 18 18 19 18 19 19 19 18 18 18 18 18 19 19 18 19 19 19 18 18 18 19 19 19 19 19 19 19 19 19 20 19 19 19 20 21
16 16 17 16 16 16 17 17 17 18 18 18 18 19 19 19 18 18 18 18 18 19 19 19 19 19 19 18 18 18 18 18 18 18 19 19 19 19 19 19 19 19 20
15 15 15 15 15 16 16 18 17 18 17 17 18 18 18 19 19 18 18 18 18 19 19 19 19 19 19 19 19 19 19 19 18 18 19 19 19 19 19 19 19 19 19
14 14 14 14 15 15 16 16 15 15 15 17 18 18 18 18 18 18 19 19 19 18 19 19 19 19 19 19 19 19 19 19 19 19 19 19 19 19 19 18 19 19 19
13 13 13 14 14 15 16 16 16 14 14 15 17 17 16 17 18 18 18 18 18 18 18 18 18 18 19 19 19 19 19 19 19 18 18 18 18 19 19 18 19 18 18
12 12 12 13 13 14 14 13 14 14 15 14 16 15 15 16 16 17 17 17 17 17 17 17 18 18 18 19 18 19 18 18 19 19 19 19 19 19 19 18 18 18 18
12 12 12 13 13 13 13 13 13 13 13 13 13 14 14 14 15 15 15 15 15 15 15 16 15 15 15 15 16 16 16 17 18 18 18 19 19 19 19 19 18 18 18
12 12 12 13 13 12 12 13 13 13 13 13 13 13 13 13 14 14 14 14 14 15 15 15 15 15 15 15 16 16 16 16 16 17 17 18 18 18 18 18 19 19 19
11 11 12 12 12 12 12 12 12 12 12 13 13 13 13 13 13 13 13 14 14 14 13 13 14 14 14 15 15 16 16 16 17 17 17 18 18 18 18 19 18 18 18
11 11 10 10 10 11 11 11 12 12 12 12 12 12 12 12 12 13 13 14 14 14 13 13 14 14 14 14 15 15 15 15 16 16 15 16 17 17 17 16 16 17 17
10 10 10 10 10 10 10 10 10 10 10 11 11 11 11 11 12 12 12 12 12 12 12 12 13 13 14 14 15 15 15 14 14 14 14 14 15 15 15 15 15 15 15
9 9 9 9 9 9 9 9 9 9 9 9 9 9 9 9 10 10 10 10 11 11 11 11 11 11 11 12 12 12 12 12 13 13 13 13 13 14 14 16 15 15 15
8 9 9 9 9 9 9 9 8 8 8 8 8 8 8 9 9 10 10 10 10 10 10 10 10 10 9 9 8 8 8 8 8 8 10 10 11 12 13 14 14 15 15
7 7 7 8 8 8 8 8 8 8 8 8 8 8 8 8 8 8 9 9 10 10 9 9 8 8 8 7 7 7 7 7 7 7 7 8 9 10 11 12 12 13 13
6 7 7 7 7 7 6 6 7 7 7 7 7 7 8 8 8 8 8 8 8 8 7 7 7 7 6 5 3 4 4 5 6 7 6 6 6 8 9 9 10 11 11
6 6 6 6 5 5 5 5 5 5 5 6 6 6 6 6 6 6 6 6 5 5 4 4 4 5 5 5 4 3 2 2 3 3 4 4 5 6 6 7 8 9 10
6 6 5 5 5 5 5 5 5 5 5 4 4 4 4 4 4 4 3 3 2 2 2 2 2 2 1 1 1 0 1 2 1 1 1 1 2 2 4 5 6 7 8
5 5 5 5 5 5 5 5 4 4 4 4 4 4 3 3 3 3 3 2 2 1 1 1 0 0 -1 -3 -2 -2 -2 -1 -1 -1 -0 -0 -0 0 1 2 4 6 7
5 5 5 5 5 4 4 4 4 4 3 3 3 3 3 3 3 2 2 2 1 1 1 0 0 0 -0 -1 -3 -4 -3 -3 -2 -2 -2 -2 -1 -1 -0 0 1 2 4
5 5 5 5 4 4 4 3 3 3 3 2 2 2 2 2 2 2 1 1 1 0 -0 -1 -1 -1 -2 -2 -2 -3 -4 -3 -3 -3 -3 -3 -2 -2 -2 -1 -0 0 1
5 5 5 5 4 4 4 3 3 3 2 2 2 1 1 1 1 1 1 0 -0 -1 -1 -1 -2 -2 -2 -3 -3 -3 -3 -3 -2 -2 -2 -2 -2 -2 -1 -1 -1 -0 0
5 5 5 4 4 4 4 3 3 3 2 2 1 1 1 0 0 0 -0 -0 -1 -1 -2 -2 -2 -3 -3 -3 -3 -4 -4 -3 -3 -3 -3 -2 -2 -1 -1 -0 -0 0 1

GFSGL_850_temp_105.txt.gz
Temp
19 19 18 18 18 19 18 18 19 19 19 19 19 19 19 19 18 19 19 18 18 19 19 19 19 20 20 19 20 20 20 20 19 20 20 20 20 20 20 20 20 19 19
19 19 18 18 17 18 18 18 18 18 18 19 19 18 18 19 19 19 19 19 18 18 18 19 18 19 19 19 19 19 19 19 19 18 19 19 19 20 20 20 20 20 20
19 19 19 18 17 18 18 18 18 18 19 19 19 19 19 18 18 18 18 18 18 18 18 18 19 19 18 18 18 18 18 19 19 19 18 18 19 19 19 19 20 20 20
17 18 18 18 17 17 18 18 19 19 19 19 19 19 19 18 18 18 18 18 18 18 18 18 18 18 18 18 18 19 18 18 18 18 18 18 18 18 19 19 19 19 20
16 15 16 16 17 17 17 18 18 18 19 19 19 19 19 19 19 18 18 18 18 19 19 18 18 18 18 18 18 18 18 18 18 18 19 19 19 19 19 18 18 19 19
15 15 15 15 16 16 17 17 18 18 18 18 19 19 19 18 19 19 19 19 18 18 19 18 18 18 18 18 18 18 18 18 19 18 18 18 18 18 18 18 18 18 19
15 15 15 15 15 15 16 16 17 17 18 17 18 18 18 18 19 19 19 19 19 19 19 19 19 18 19 19 18 19 19 19 19 19 19 19 19 17 18 19 17 18 18
15 14 15 15 15 15 15 16 17 16 16 16 17 18 18 19 19 19 19 19 18 19 19 19 19 18 19 19 19 19 19 19 19 19 19 19 19 19 19 18 18 19 18
14 14 14 14 14 14 14 14 15 16 15 15 15 16 17 17 18 17 17 18 18 18 18 18 18 18 19 19 19 19 18 18 18 19 19 19 19 19 18 18 18 17 18
12 13 13 13 13 13 14 14 15 14 14 14 15 15 15 16 16 16 16 16 16 16 16 16 16 16 16 16 16 16 17 17 18 19 18 18 18 18 18 18 18 17 17
13 13 13 13 13 14 14 14 14 13 14 13 13 13 12 13 15 15 15 15 15 15 15 15 15 15 15 16 16 15 16 16 17 17 17 17 17 16 16 16 16 17 17
13 13 13 13 14 14 13 13 13 12 12 12 12 12 12 11 13 13 13 14 14 14 14 14 15 15 15 15 15 15 16 16 16 16 15 15 15 15 15 15 16 16 16
12 12 12 12 12 12 12 12 12 12 12 12 11 12 12 12 13 13 13 13 13 13 13 13 14 15 15 15 15 15 15 15 14 14 16 16 15 16 16 16 16 16 15
11 11 11 11 11 11 11 11 11 11 11 12 12 12 12 12 13 13 13 13 14 13 13 14 14 14 15 14 14 14 14 14 15 14 14 15 15 15 15 16 16 16 17
10 10 10 10 10 10 10 10 10 11 11 11 11 11 11 11 12 12 12 12 13 13 13 13 13 14 14 14 14 12 10 10 10 10 11 13 13 13 13 14 15 15 15
9 9 9 9 9 9 9 9 9 9 10 10 10 10 10 11 11 10 11 11 11 12 12 12 12 11 11 11 11 10 8 7 7 9 8 8 8 9 9 11 10 10 12
8 9 9 9 8 8 8 8 8 7 8 8 8 8 9 9 9 10 10 10 11 11 10 10 10 9 9 8 6 6 7 7 7 6 6 6 6 7 7 7 8 8 9
8 8 8 8 8 8 8 7 7 7 7 7 7 7 8 8 9 9 9 9 9 10 9 9 9 9 8 8 7 6 6 6 5 5 5 5 5 5 5 6 7 6 7
8 8 8 7 7 7 7 7 7 7 7 7 7 7 7 8 8 8 8 8 8 7 7 6 5 5 5 5 5 5 5 4 3 2 3 2 3 3 3 3 4 6 6
7 7 7 7 6 6 6 6 6 6 6 6 6 6 6 7 7 7 7 6 6 6 5 5 5 5 4 3 1 -0 -0 2 2 2 2 1 1 1 1 1 2 3 4
6 6 6 6 6 6 5 5 5 5 5 5 4 4 4 5 4 4 4 3 3 3 3 2 2 2 2 2 2 2 1 -1 -1 -1 -1 -0 -0 0 -0 0 0 0 1
6 6 6 5 5 5 5 5 5 4 4 4 4 4 4 4 3 3 3 2 2 2 2 1 1 -0 -1 -2 -2 -3 -2 -1 -0 -2 -3 -2 -2 -1 -1 -1 -1 -1 -0
5 5 5 5 5 5 4 4 4 4 4 3 3 3 3 3 2 2 2 2 2 2 2 1 1 0 -0 -1 -1 -2 -3 -4 -4 -4 -4 -3 -3 -3 -3 -2 -2 -2 -1
5 5 5 5 5 4 4 4 4 4 3 3 3 3 2 2 2 2 1 1 1 1 1 1 1 0 -1 -1 -1 -2 -2 -2 -3 -4 -4 -4 -4 -3 -3 -2 -2 -2 -2
5 5 4 5 5 4 4 4 4 4 4 3 3 3 2 2 2 2 1 1 1 1 1 1 0 -0 -1 -1 -2 -2 -2 -2 -3 -3 -4 -4 -4 -4 -3 -3 -3 -2 -1
5 5 4 3 4 4 4 4 4 4 3 3 3 3 2 2 2 2 1 1 1 1 1 0 -0 -1 -1 -1 -2 -2 -2 -3 -3 -3 -3 -3 -3 -3 -2 -2 -2 -1 -1

GFSGL_850_temp_108.txt.gz
Temp
19 18 18 18 18 17 17 17 18 18 18 19 19 18 18 18 18 18 18 18 17 18 18 18 18 19 19 20 20 20 21 21 21 22 21 21 19 19 19 19 20 20 21
19 19 18 18 18 18 17 17 18 18 18 19 19 18 18 18 18 18 17 19 18 18 18 18 18 19 18 19 19 19 20 19 19 20 20 20 20 19 19 19 20 21 21
17 18 18 17 18 17 17 17 18 18 19 18 18 18 18 18 18 19 17 17 18 18 18 18 18 18 18 19 18 19 20 20 20 20 20 21 21 20 20 20 20 20 22
18 18 17 18 18 17 17 18 17 18 17 18 19 18 18 18 18 18 18 19 18 18 18 18 18 18 17 18 18 18 18 18 19 19 20 21 22 22 21 21 21 21 21
16 17 17 17 17 16 18 18 17 18 18 17 17 19 18 18 18 18 19 18 18 18 18 18 18 18 18 18 18 18 19 18 19 20 20 21 22 21 20 21 21 21 21
15 15 16 16 17 17 17 17 18 18 18 18 17 17 17 18 19 19 19 18 18 18 18 18 18 18 18 18 18 18 18 18 18 18 19 20 20 19 20 20 20 20 20
15 15 15 16 15 15 17 16 17 17 17 17 16 17 19 19 19 19 19 19 17 17 17 17 18 18 19 19 19 19 19 18 18 18 18 18 19 19 18 18 18 18 19
15 15 15 15 15 14 15 16 16 17 16 16 17 18 18 18 19 19 19 18 18 19 19 19 19 19 19 19 19 17 17 17 17 18 18 18 18 19 18 18 18 18 18
15 15 15 15 15 15 15 14 15 16 15 16 17 17 17 17 17 17 17 18 18 18 18 18 18 18 18 18 18 18 18 17 17 18 18 19 19 19 18 18 17 17 18
14 14 14 14 14 13 14 14 14 15 14 15 15 15 16 16 16 16 16 15 17 15 16 16 16 17 17 16 17 17 17 16 18 18 18 17 16 17 17 17 17 17 17
13 13 13 13 13 13 13 14 14 13 14 14 14 14 14 14 15 15 15 15 15 14 14 13 14 15 15 16 16 16 16 17 17 16 16 17 17 17 17 16 16 16 16
12 12 12 12 12 13 13 13 12 12 13 13 12 12 13 13 14 13 13 13 14 15 14 15 15 15 15 15 15 15 16 16 15 16 16 16 15 15 15 15 16 16 15
11 12 12 12 12 12 12 12 12 12 11 10 10 10 10 12 12 12 12 13 14 14 14 14 15 15 15 15 14 15 15 14 14 14 14 14 13 13 13 14 14 15 15
11 11 11 10 11 11 10 10 9 10 10 9 10 10 12 12 12 12 13 13 14 14 14 14 14 13 13 12 13 11 11 12 11 13 12 12 12 13 13 13 13 13 14
10 10 10 9 9 10 10 9 11 11 11 9 9 10 9 11 12 12 12 13 13 13 13 12 12 11 10 10 10 10 10 10 11 10 10 11 11 11 12 12 12 12 13
7 8 8 8 8 8 10 10 10 10 10 10 10 10 11 11 11 11 11 11 11 11 10 9 8 10 8 8 8 8 8 8 8 9 9 9 9 9 10 9 10 10 11
7 7 7 8 8 7 7 7 10 9 9 9 9 9 9 10 10 10 10 10 10 9 8 9 10 10 10 8 6 6 7 6 7 6 6 6 6 7 7 8 8 8 9
7 8 7 7 7 7 7 7 7 6 6 7 8 8 8 9 9 9 9 9 6 7 6 6 6 5 5 5 5 5 6 5 4 4 5 5 6 5 5 5 5 5 5
7 7 7 7 7 7 6 7 6 6 6 6 6 7 8 8 8 9 9 6 5 4 4 4 4 4 3 3 3 3 3 3 3 3 3 2 2 2 2 3 3 3 2
6 6 6 6 6 6 6 6 6 6 6 6 5 5 5 5 5 4 5 5 4 4 4 3 3 3 2 2 2 1 1 1 1 2 2 1 1 1 1 1 1 1 1
5 6 6 6 6 6 6 6 6 6 6 6 5 6 6 5 4 3 3 3 3 3 3 3 4 4 3 2 2 1 -0 -0 -1 -1 -1 -1 -1 -1 -1 -0 0 -0 -0
6 5 5 6 6 5 6 6 6 6 5 5 5 4 5 4 3 3 2 2 1 3 3 4 3 2 -0 -0 -0 -2 -2 -3 -3 -3 -3 -3 -4 -4 -3 -3 -2 -1 -1
6 6 5 6 6 5 4 5 5 5 5 5 5 4 4 3 3 3 2 2 1 0 -0 -1 -1 -1 -0 0 0 -1 -1 -2 -2 -3 -3 -2 -2 -3 -4 -4 -4 -3 -2
6 6 6 6 5 5 5 5 5 5 5 5 5 4 4 3 3 2 2 2 1 1 0 -1 -1 -2 -3 -2 -1 -1 -2 -2 -3 -3 -3 -3 -3 -3 -3 -4 -4 -3 -3
6 6 6 6 6 5 5 5 5 5 5 4 5 4 4 4 3 3 2 2 1 1 0 -0 -1 -1 -0 1 0 -0 -1 -2 -2 -3 -3 -3 -3 -3 -3 -3 -2 -2 -2
6 5 6 6 6 6 5 5 5 5 5 5 5 4 4 4 3 3 2 2 1 1 0 -0 0 1 1 0 -1 -1 -1 -2 -2 -2 -3 -3 -2 -2 -2 -2 -2 -2 -1

GFSGL_850_temp_111.txt.gz
Temp
20 20 20 19 19 19 18 18 18 18 20 18 18 18 18 18 18 19 19 19 18 19 19 19 19 19 20 21 22 22 22 22 22 23 22 22 21 21 21 20 20 21 22
20 20 19 20 19 19 19 18 18 18 18 18 18 18 18 18 18 18 18 19 19 18 19 19 19 20 19 20 20 21 21 21 20 20 21 21 22 22 21 21 21 22 22
19 19 20 19 19 19 19 19 19 18 18 18 18 18 18 18 18 18 18 18 18 19 19 19 19 19 18 19 20 20 20 21 20 21 20 21 22 22 22 22 22 22 23
19 19 19 18 19 19 19 19 19 18 18 18 18 18 18 19 19 18 18 18 18 19 19 19 19 19 19 18 19 19 19 19 20 20 21 22 23 23 22 22 22 22 22
20 18 18 18 18 18 18 18 18 18 18 18 19 18 18 18 18 19 19 19 19 19 19 19 19 19 19 19 19 18 19 19 20 20 21 21 22 21 21 21 22 22 21
17 16 16 17 18 17 18 18 17 18 17 18 18 19 19 19 19 19 19 18 19 18 19 19 19 19 19 19 19 19 19 19 19 18 19 20 20 19 19 19 19 19 19
17 16 16 16 16 17 17 16 17 17 17 17 18 18 19 20 20 19 19 19 18 18 18 19 18 19 19 19 19 19 19 19 18 18 18 18 18 18 19 19 18 18 18
16 15 15 15 15 15 16 15 16 16 16 16 17 19 19 19 19 19 18 18 19 19 19 19 18 19 19 19 19 18 17 17 17 18 18 18 17 18 18 18 18 18 18
15 15 15 15 15 14 14 14 15 15 16 16 17 17 18 18 18 18 17 16 16 18 18 18 18 18 18 18 18 18 18 16 17 16 17 18 18 18 18 18 17 18 18
15 15 15 14 15 14 14 14 15 15 15 16 16 16 16 17 17 17 17 16 15 15 16 16 17 17 17 18 18 18 17 18 18 18 18 17 17 17 17 16 17 17 17
14 14 14 14 13 13 13 13 14 15 15 14 14 15 15 15 15 16 16 16 16 15 16 15 14 16 17 17 17 17 17 17 17 17 18 18 17 17 17 16 16 16 15
13 12 12 12 11 12 13 13 14 13 13 13 13 12 13 14 14 14 15 14 14 15 14 13 15 15 15 15 16 16 16 16 16 16 17 16 16 15 15 15 15 14 14
11 11 11 11 11 11 11 11 12 12 11 12 12 12 10 11 12 13 14 14 14 13 13 14 15 15 15 14 14 14 15 14 14 14 15 14 14 14 14 14 14 14 14
11 11 11 10 11 10 11 12 12 12 12 11 11 11 10 12 13 14 14 14 13 13 13 13 14 13 12 11 12 12 12 11 12 12 12 12 12 13 13 13 13 13 13
9 9 9 10 9 11 11 10 11 11 11 11 10 10 10 9 12 12 13 13 13 13 13 10 12 11 10 9 10 10 10 10 9 10 10 11 11 11 11 11 11 11 12
10 10 11 10 9 8 10 11 11 11 11 10 10 11 11 11 11 11 12 12 12 11 10 9 9 9 8 8 8 9 8 9 10 9 8 8 8 9 9 8 9 10 10
10 10 10 11 11 9 8 8 10 10 10 10 10 10 11 11 11 11 11 10 10 9 10 8 8 8 7 7 7 6 6 6 6 5 8 8 7 6 7 6 7 7 8
8 9 10 10 10 10 10 9 8 8 8 9 9 10 10 10 10 10 10 9 8 8 8 7 7 7 6 6 6 5 5 5 5 4 4 5 5 4 4 4 4 5 5
11 9 9 10 10 10 9 10 10 9 9 8 9 9 9 9 9 9 9 7 7 7 6 6 5 5 5 4 4 4 4 4 3 3 4 3 3 4 3 3 2 2 2
9 8 8 9 8 8 9 9 9 9 9 9 8 8 7 7 7 7 6 6 6 6 5 5 4 4 3 3 3 3 2 2 2 2 2 2 1 1 1 1 1 1 1
7 8 8 7 8 9 9 9 9 9 9 8 7 7 8 7 7 6 6 5 5 5 4 4 4 4 3 2 3 2 2 1 1 0 -0 -0 -1 -1 -1 -1 -1 -0 -0
7 6 7 7 8 8 7 8 8 9 9 8 8 7 7 7 6 6 5 5 4 3 3 5 4 4 2 3 3 2 2 -0 -0 -0 -0 0 -0 -1 -3 -2 -2 -2 -2
8 8 7 7 8 7 7 8 8 8 8 8 8 7 6 6 6 6 5 5 4 3 3 2 2 1 1 0 1 1 1 1 0 -0 -1 -1 -2 -2 -3 -3 -4 -3 -3
7 7 8 7 7 7 7 7 8 8 8 8 8 7 7 6 6 5 4 4 4 4 3 3 2 1 1 0 -0 -1 -2 -2 -2 -1 -2 -2 -2 -2 -3 -3 -3 -2 -2
8 8 8 8 8 7 7 7 7 7 7 7 7 7 7 6 6 5 5 5 4 4 3 3 2 2 1 0 -1 -1 -1 -1 -1 -2 -1 -2 -2 -3 -3 -3 -3 -3 -2
6 7 7 7 8 7 7 7 7 7 7 7 7 7 7 6 6 6 5 5 4 4 3 3 2 1 0 -0 -1 -0 -1 -1 -1 -1 -1 -2 -2 -3 -4 -3 -3 -3 -2

GFSGL_850_temp_114.txt.gz
Temp
20 20 19 19 19 19 19 19 19 20 19 18 19 19 19 19 19 19 19 19 19 19 20 20 19 20 21 21 21 21 22 22 21 22 22 22 22 22 22 22 22 22 22
21 20 20 20 20 19 19 19 19 19 19 19 19 19 19 19 19 19 20 19 18 19 19 19 20 20 20 20 19 20 21 21 20 20 21 21 22 22 22 22 22 22 22
20 20 20 20 20 20 19 19 19 19 19 18 19 19 19 19 19 19 19 20 19 19 19 19 19 19 19 20 20 20 20 20 20 20 21 21 21 21 22 21 22 22 22
20 20 19 19 19 19 20 19 19 19 19 19 19 19 19 19 18 18 19 19 19 19 19 19 19 20 19 19 19 19 19 20 20 20 20 20 21 21 21 21 21 21 21
19 19 19 19 20 20 19 19 19 19 19 18 19 19 19 18 19 19 19 18 18 19 19 19 19 19 19 19 19 19 19 19 20 20 20 21 21 21 21 20 20 20 21
19 19 19 19 19 18 18 18 18 18 18 18 18 18 18 18 20 19 18 19 17 17 19 19 19 19 19 19 19 19 19 19 19 19 19 19 19 19 19 19 19 19 19
18 18 18 19 18 18 18 17 17 17 17 18 18 18 19 19 20 20 19 19 19 19 19 19 19 20 20 19 19 19 19 18 17 17 18 18 18 18 18 18 18 18 18
17 17 17 16 16 16 16 16 17 16 16 17 18 19 19 19 19 19 19 19 19 19 19 19 19 19 19 19 19 19 19 18 17 17 17 17 18 18 17 17 17 17 18
16 16 15 15 15 15 16 16 15 15 15 15 16 17 18 18 18 18 18 17 18 18 18 17 17 18 18 18 18 18 18 18 18 18 18 17 17 17 17 17 16 17 17
15 15 16 16 15 15 16 15 15 15 15 15 15 16 16 17 17 17 17 16 16 16 16 16 16 16 17 17 17 18 18 18 18 18 18 16 17 16 16 16 16 16 15
15 15 15 15 14 14 14 14 14 15 15 14 14 15 15 15 16 16 16 16 16 15 14 14 15 16 16 16 16 17 17 17 17 17 17 17 16 16 15 15 16 15 15
14 14 14 14 13 13 13 14 14 14 13 13 13 13 14 14 14 15 15 15 15 16 15 15 15 15 15 15 15 15 15 14 15 15 16 15 15 15 14 14 14 14 14
12 12 12 12 12 12 13 13 12 13 13 12 12 11 12 13 14 14 14 14 14 14 15 15 15 15 14 13 12 13 13 13 13 13 13 13 13 13 13 13 13 14 14
11 11 11 11 11 11 11 11 11 12 12 13 12 12 11 13 14 14 14 14 14 14 14 14 14 11 11 12 12 12 12 13 13 12 12 12 12 12 12 12 12 12 12
10 11 11 10 11 11 11 12 12 12 12 12 12 12 11 12 13 13 13 13 14 14 13 12 11 11 11 12 12 12 12 12 12 13 13 13 12 11 10 10 9 10 10
10 10 10 10 10 10 11 11 12 12 12 11 11 12 12 11 12 12 12 12 12 12 11 10 11 10 10 9 9 10 10 11 10 10 10 10 10 9 10 10 9 9 8
10 11 11 11 10 9 10 11 11 11 11 11 11 11 11 11 11 11 11 11 10 10 9 9 8 8 7 7 8 7 7 7 8 8 7 6 6 7 7 7 7 7 7
11 11 11 11 11 10 9 8 10 10 10 10 10 10 10 10 10 10 10 9 9 8 8 8 7 7 7 6 7 7 7 5 6 6 5 5 5 5 5 4 4 4 3
9 10 11 11 11 11 10 10 10 10 9 9 9 9 9 9 9 9 8 8 8 7 7 6 6 6 7 7 7 7 7 6 5 5 5 5 4 5 5 5 4 4 3
9 9 10 10 10 10 10 10 10 10 10 9 9 8 8 8 8 7 7 7 7 6 6 5 5 6 6 6 6 5 4 3 3 3 3 3 4 3 3 3 2 1 0
8 9 9 8 9 9 9 9 10 10 10 9 9 8 8 8 8 7 7 6 6 5 5 5 5 5 4 5 5 5 4 3 3 3 3 3 3 3 2 2 1 -0 -1
8 8 8 8 8 9 8 9 9 9 9 9 9 8 8 8 7 7 6 6 5 5 4 5 5 5 5 5 5 5 4 4 3 2 2 2 2 2 1 1 0 -0 -1
8 8 8 8 8 9 8 8 9 8 9 9 9 9 8 8 7 7 6 5 5 4 4 4 3 3 2 2 2 2 2 2 2 1 1 1 1 0 -0 -1 -2 -3 -3
8 9 8 8 8 8 8 8 8 8 8 8 9 8 8 7 7 7 6 5 5 4 4 3 3 3 2 2 1 1 0 0 0 -0 -0 -1 -0 -1 -2 -3 -4 -4 -3
8 8 8 8 8 8 8 8 8 8 8 8 8 8 8 7 7 6 6 5 5 5 4 4 3 3 2 2 1 0 0 0 -0 -0 -0 -1 -1 -1 -2 -4 -3 -3 -3
8 8 8 8 8 8 8 8 7 7 7 8 8 8 8 8 7 7 6 6 5 5 4 4 4 3 2 2 1 1 1 1 0 -0 -0 -0 -1 -1 -3 -3 -3 -3 -2

GFSGL_850_temp_117.txt.gz
Temp
21 20 19 19 19 19 20 19 20 20 20 20 20 19 18 19 19 19 19 19 19 19 19 19 19 20 20 20 21 21 21 21 21 22 21 21 21 21 22 22 21 21 21
20 20 20 20 19 19 19 19 19 20 20 20 20 18 18 19 19 19 19 19 19 19 19 19 19 19 19 19 20 20 21 20 20 21 21 21 21 21 20 21 21 21 21
20 20 20 19 19 19 19 19 19 19 19 20 19 19 19 19 19 19 19 19 19 19 19 19 19 19 19 19 19 20 20 20 20 20 20 20 20 20 20 21 21 22 22
20 19 19 19 19 19 19 19 19 19 19 19 18 18 19 19 18 18 19 19 19 19 19 19 19 19 20 19 19 19 19 19 20 20 19 20 20 20 20 21 22 21 21
20 20 19 19 19 19 18 19 18 18 19 19 18 18 18 18 19 20 19 19 19 19 18 18 19 19 19 19 19 19 19 20 20 20 20 20 20 20 19 19 19 20 20
20 18 18 18 19 19 18 19 18 18 17 18 17 18 18 19 20 19 19 19 19 19 20 18 19 19 19 19 19 19 19 19 19 19 18 18 19 18 18 19 18 18 18
19 18 18 19 19 19 18 18 18 18 17 17 17 18 18 19 19 19 19 18 18 19 18 18 18 19 19 19 19 19 18 18 18 18 18 17 18 17 17 17 17 17 17
19 19 19 19 18 18 17 17 17 17 17 17 17 17 17 18 19 19 19 18 17 17 18 18 18 19 19 19 19 18 18 18 18 17 17 17 17 16 17 17 16 16 17
17 18 18 17 16 15 16 15 15 16 16 16 16 17 17 17 18 18 18 18 17 18 18 18 18 18 18 18 18 18 18 18 17 17 16 16 16 16 16 16 17 17 17
16 16 15 16 15 15 15 15 15 15 15 14 15 15 16 16 17 17 17 17 17 17 17 16 16 17 17 17 17 18 18 18 17 17 16 15 15 15 15 15 15 15 15
15 15 15 15 14 15 15 15 15 15 15 15 15 15 16 15 16 16 16 17 17 17 16 15 15 16 16 16 17 17 17 16 16 16 16 15 15 15 15 15 15 14 14
15 15 14 14 14 14 15 14 14 14 14 14 14 14 15 14 15 15 15 15 15 15 14 15 15 15 15 16 16 16 16 14 15 15 15 15 15 15 15 15 14 14 13
14 14 14 14 14 14 13 13 13 13 13 13 13 14 14 14 14 14 14 14 14 14 14 14 14 14 15 15 14 15 14 14 14 14 14 14 13 13 14 14 14 14 14
12 13 13 13 12 13 13 13 13 12 12 12 12 13 13 13 13 14 14 14 15 15 15 14 14 14 13 12 12 13 13 14 13 13 13 13 13 13 13 13 14 14 13
10 10 10 11 11 11 11 11 11 12 12 12 11 12 13 13 13 14 14 14 14 14 13 13 13 12 12 12 13 13 12 13 13 13 13 13 13 13 12 12 12 11 11
10 11 10 10 11 11 11 11 11 11 11 12 12 12 12 12 12 13 13 13 12 11 11 11 11 11 12 11 12 12 12 11 12 11 11 12 12 11 11 11 10 10 10
10 10 11 11 11 11 11 11 11 11 11 11 11 11 12 12 12 12 11 11 10 10 10 10 10 10 10 10 9 9 10 9 9 9 10 9 9 9 9 8 8 8 8
10 11 10 10 11 11 11 12 11 11 11 11 11 11 11 11 11 10 10 9 9 9 9 9 9 8 9 9 8 8 8 8 8 8 8 8 7 6 6 6 6 5 5
11 11 11 10 10 10 10 10 10 10 10 11 11 11 11 10 10 9 9 8 8 9 9 8 8 8 8 8 8 7 7 7 7 7 6 6 6 5 5 5 4 4 3
10 10 10 11 11 10 10 10 10 10 9 9 9 9 10 10 10 9 9 8 8 7 7 8 8 8 7 7 7 6 6 6 6 5 5 5 4 4 4 3 3 2 2
11 11 10 10 10 10 10 10 10 10 10 9 9 9 8 8 7 7 7 7 7 6 6 7 6 6 7 6 5 5 5 5 5 4 4 3 3 3 3 2 2 2 1
9 9 9 9 9 9 9 10 10 10 9 9 9 9 8 8 7 7 7 7 6 6 6 6 5 5 5 5 5 5 4 4 3 3 3 3 2 2 2 2 2 2 0
8 8 8 8 9 9 9 9 9 9 9 9 9 9 8 8 8 7 7 6 6 6 6 5 5 4 4 4 4 4 4 3 3 2 2 2 2 2 1 1 1 -2 -3
8 8 8 8 8 8 8 8 9 8 9 9 9 9 9 8 8 7 7 6 6 5 5 4 4 4 3 3 3 3 2 2 1 1 1 1 1 1 0 -1 -3 -3 -3
9 8 8 8 8 8 8 8 8 8 8 8 8 8 8 8 8 7 7 7 6 6 5 5 4 4 3 3 3 3 2 2 2 1 1 1 1 0 -0 -1 -2 -2 -2
9 9 8 8 8 8 8 8 8 8 8 8 8 8 8 7 7 7 7 7 6 6 5 5 5 4 4 3 3 3 3 2 1 1 1 1 0 0 0 -0 -2 -2 -2

GFSGL_850_temp_123.txt.gz
Temp
20 20 19 19 19 19 20 19 19 19 19 19 19 19 19 19 18 18 18 18 18 18 19 19 19 19 19 19 19 19 19 20 20 20 20 20 20 20 20 20 20 21 21
21 20 20 19 19 19 19 19 19 19 19 19 19 19 19 19 18 18 18 18 18 19 19 19 19 19 19 19 19 19 19 19 19 20 20 20 19 20 20 20 20 20 20
21 20 19 19 18 18 19 19 19 19 19 19 19 19 19 19 18 18 18 18 18 19 19 19 19 19 19 19 19 19 19 19 19 19 19 20 19 19 20 20 20 20 19
21 20 19 19 19 18 18 18 18 19 18 19 19 19 18 18 18 18 18 18 18 18 18 19 19 19 18 19 19 19 19 19 19 19 19 19 19 19 19 19 20 19 18
20 20 20 19 18 18 18 18 18 18 18 18 18 18 18 18 18 18 18 18 18 18 18 19 19 19 19 19 19 19 19 19 19 19 19 19 19 19 19 19 18 18 18
20 20 20 19 18 18 18 18 18 19 18 18 18 18 18 18 18 19 18 18 18 19 18 18 19 19 18 19 19 18 19 19 19 18 18 18 17 17 17 17 17 17 17
20 19 19 19 19 18 18 19 19 18 18 18 18 18 18 18 19 19 19 18 18 18 18 18 18 18 19 19 18 18 18 18 18 18 18 18 17 17 17 17 17 16 16
19 19 19 18 18 18 18 19 19 19 18 18 18 18 18 17 18 18 18 18 18 18 18 18 18 18 18 18 18 18 18 18 18 18 18 17 16 16 16 16 16 16 16
16 18 19 17 17 17 18 18 17 18 17 17 17 17 17 17 17 18 17 17 17 17 17 17 17 17 17 17 17 17 17 17 17 17 16 16 15 15 16 16 16 16 16
16 17 17 17 16 17 17 16 16 17 15 15 15 15 16 16 16 16 16 16 16 15 15 16 16 16 16 16 16 17 17 16 16 15 15 15 15 15 15 16 15 15 15
16 16 16 15 15 16 15 15 15 15 15 14 15 15 15 15 14 15 15 15 15 15 15 14 15 15 15 16 16 16 16 15 14 14 14 14 14 14 14 14 14 14 14
15 15 15 14 14 15 15 15 14 14 14 14 14 14 14 14 14 14 14 14 14 13 14 14 14 15 15 15 15 15 14 14 14 14 13 13 13 13 13 13 13 13 12
15 15 14 14 14 14 14 15 14 14 13 14 13 14 14 14 14 14 14 14 13 14 14 14 14 13 13 14 13 14 13 13 13 13 13 13 13 13 12 12 12 11 11
14 14 14 14 14 14 14 14 13 13 13 13 13 13 13 13 13 13 13 12 12 12 13 13 13 13 12 12 12 12 12 12 12 12 13 12 11 11 12 12 12 12 11
13 13 13 13 13 13 13 13 13 13 12 12 12 12 12 12 12 12 11 11 12 11 12 12 12 11 11 11 11 11 11 11 12 12 11 11 11 11 11 11 11 11 11
12 12 12 12 12 12 12 12 12 11 10 10 10 11 11 11 12 12 13 12 12 11 11 11 11 10 10 11 11 11 11 11 11 10 10 10 10 10 10 10 9 9 9
10 10 10 10 10 10 10 10 10 10 10 10 10 10 10 10 10 11 11 11 10 10 10 10 10 10 10 10 10 10 10 9 8 8 9 9 9 9 9 9 8 8 8
10 10 10 10 10 11 11 10 10 10 10 10 10 10 10 11 11 11 11 9 9 8 9 9 9 9 9 9 9 8 8 8 8 8 8 8 8 7 7 7 7 7 7
10 10 10 10 10 10 10 10 10 9 10 10 10 10 10 9 9 9 9 9 10 9 8 8 8 8 8 8 8 8 7 7 7 7 7 7 6 6 6 6 6 6 5
10 11 11 11 11 10 10 10 10 10 10 10 10 10 10 9 9 8 8 8 8 8 8 8 8 8 7 7 7 6 6 6 6 6 6 6 5 5 5 5 4 4 4
10 10 10 10 10 10 10 10 10 10 10 10 9 9 9 9 9 8 8 8 8 8 8 7 7 7 6 6 6 6 6 5 5 5 5 5 4 4 4 4 4 3 2
10 10 9 9 9 10 10 10 10 10 10 9 9 9 9 8 8 8 8 8 8 7 7 7 6 6 6 6 6 5 5 5 5 4 4 4 3 3 3 3 2 2 1
10 10 9 9 9 9 9 9 9 9 9 9 9 9 9 9 8 8 8 8 7 7 7 6 6 6 6 5 5 5 5 4 4 4 3 3 3 2 2 2 2 1 1
9 9 9 9 8 8 8 8 8 8 8 8 9 8 8 8 8 8 8 8 7 7 7 6 6 6 5 5 4 4 4 3 3 3 3 2 2 2 2 2 2 1 0
9 9 9 9 9 8 8 8 8 8 8 8 8 8 8 8 8 8 8 8 7 7 7 6 6 6 6 5 4 4 4 3 3 3 3 2 2 1 1 1 1 1 0
9 9 9 9 9 9 9 8 8 8 8 8 8 8 8 8 8 8 8 8 7 7 7 7 6 6 6 5 5 5 4 4 3 3 3 2 2 1 1 1 1 0 0